Location: Eyeline Observatory
(43.2182°N, 78.8632°W)
Time: 01:22:58
(UTC-05:00)

N. Korean satellite - Pass Details

Date: 13 October 2017
Orbit: 461 x 513 km, 97.2° (Epoch: 14 December)

Event Time Altitude Azimuth Distance (km) Brightness Sun altitude
Rises 19:48:54 0° 188° (S) 2,550 10.3 -14.2°
Reaches altitude 10° 19:51:08 10° 199° (SSW) 1,664 9.5 -14.6°
Maximum altitude 19:54:21 31° 263° (W) 859 8.6 -15.2°
Drops below altitude 10° 19:57:33 10° 328° (NNW) 1,651 9.7 -15.8°
Sets 19:59:46 0° 338° (NNW) 2,526 10.6 -16.2°
